Volver al catálogo

COSMOS 337

ActivoMilitarLEO
NORAD 4384·PAYLOAD·🇷🇺 Russia

Lanzado Apr 25, 1970 desde Plesetsk Cosmodrome

Loading…

Próximos Pases (próximas 24 horas)

TLE

ActualizadoSource: Space-Track

Época: Sep 14, 2026, 13:48 UTC

1 04384U 70036B   26257.57524721 -.00000003  00000-0  95571-4 0  9995
2 04384  74.0284 299.8920 0053285 172.0731 342.5670 12.39255423550800

Sigue COSMOS 337 en tiempo real con AllMySat

Download on the App Store